[[{"header":{"parameterUnit":"m.s-1","parameterCategory":2,"la1":30.2991,"la2":30.254,"lo1":-89.0895,"lo2":-89.0444,"dy":0.0017,"dx":0.0017,"nx":28,"ny":28,"refTime":"2024-07-07T03:00:00:Z","depth":"0","parameterNumber":2,"parameterNumberName":"U-component_of_CURRENTS"},"data":[0,0,0,0,0,0,0,0,0,0,0,0,0,0,0,0,0,0,0,0,0,0,0,0,0,0,0,0,0,0,0,0,0,0,0,0,0,0,0,0,0,0,0,0,0,0,0,0,0,0,0,0,0,0,0,0,0,0,-0.3213,-0.3216,0,-0.3431,-0.3433,-0.3434,-0.3474,-0.3473,-0.3472,-0.3471,-0.3335,-0.3332,-0.3329,0,0,0,0,0,0,0,0,0,0,0,0,0,-0.2708,-0.2717,-0.3212,-0.3216,-0.3219,-0.3431,-0.3433,-0.3435,-0.3474,-0.3473,-0.3472,-0.3471,-0.3335,-0.3332,-0.3329,0,0,0,0,0,0,0,0,0,0,0,0,0,-0.2918,-0.272,-0.3212,-0.3271,-0.328,-0.343,-0.3433,-0.3435,-0.3475,-0.3473,-0.3472,-0.3471,-0.3337,-0.3333,-0.3328,-0.3331,0,0,-0.3316,-0.3314,0,0,0,0,0,0,0,0,-0.2906,-0.2935,-0.3259,-0.3268,-0.3277,-0.3432,-0.3205,-0.3386,-0.3475,-0.3391,-0.3471,-0.347,-0.3341,-0.3337,-0.3373,-0.3325,-0.3319,-0.3315,-0.3313,-0.3311,-0.331,0,0,0,0,0,0,0,-0.2892,-0.2926,-0.3289,-0.3263,-0.3275,-0.3246,-0.3275,-0.324,-0.3357,-0.3398,-0.3404,-0.3443,-0.3342,-0.3377,-0.3369,-0.3317,-0.3315,-0.3312,-0.3309,-0.3308,-0.3226,-0.3227,0,0,0,0,0,0,-0.2894,-0.2914,-0.3283,-0.3297,-0.3095,-0.3258,-0.3289,-0.3376,-0.3366,-0.3369,-0.3444,-0.3445,-0.3385,-0.3374,-0.3364,-0.3263,-0.3311,-0.3307,-0.3305,-0.3226,-0.3227,-0.3227,0,0,0,0,0,0,-0.2883,-0.2926,-0.3274,-0.3113,-0.3157,-0.327,-0.3366,-0.3381,-0.3409,-0.3407,-0.34,-0.3456,-0.3383,-0.337,-0.3337,-0.3261,-0.3305,-0.3302,-0.3226,-0.3226,-0.3227,-0.3125,0,0,0,0,0,0,-0.2868,-0.2922,-0.295,-0.3116,-0.3167,-0.333,-0.3369,-0.3387,-0.3441,-0.3442,-0.3414,-0.3402,-0.3381,-0.3344,-0.3333,-0.3256,-0.3298,-0.3225,-0.3226,-0.3227,-0.3128,-0.3122,-0.3117,0,0,0,0,0,-0.285,-0.2878,-0.2952,-0.2994,-0.3216,-0.333,-0.335,-0.3417,-0.3442,-0.3438,-0.3445,-0.3402,-0.334,-0.3342,-0.3329,-0.3248,-0.3225,-0.3226,-0.3226,-0.313,-0.3123,-0.3117,0,0,0,0,0,0,-0.2676,-0.2892,-0.2974,-0.3072,-0.3187,-0.3339,-0.3339,-0.3415,-0.3429,-0.3415,-0.3412,-0.34,-0.3359,-0.3335,-0.3338,-0.3238,-0.3272,-0.327,-0.3203,-0.3196,-0.3191,-0.3162,-0.3295,0,0,0,0,0,-0.2663,-0.2734,-0.2941,-0.301,-0.3067,-0.321,-0.3257,-0.3324,-0.3384,-0.3392,-0.3391,-0.3376,-0.3359,-0.3302,-0.3306,-0.3225,-0.3223,-0.3171,-0.3165,-0.316,-0.3135,-0.3098,-0.3085,-0.3229,-0.3229,-0.3229,0,0,-0.2618,-0.2741,-0.2785,-0.2974,-0.3065,-0.3117,-0.3229,-0.3301,-0.3311,-0.3366,-0.3337,-0.3376,-0.3355,-0.3297,-0.3267,-0.3245,-0.3124,-0.3161,-0.3155,-0.3133,-0.3097,-0.3082,-0.3069,-0.323,-0.323,-0.323,0,0,-0.2546,-0.2677,-0.271,-0.2795,-0.2943,-0.3028,-0.305,-0.3208,-0.323,-0.325,-0.3298,-0.3285,-0.3258,-0.322,-0.3195,-0.3154,-0.314,-0.3164,-0.3041,-0.3005,-0.2991,-0.2979,-0.2972,-0.296,-0.3105,-0.3105,-0.3104,0,-0.2482,-0.2593,-0.2724,-0.2767,-0.283,-0.298,-0.302,-0.3052,-0.317,-0.3186,-0.3208,-0.323,-0.3202,-0.3122,-0.3111,-0.3124,-0.3139,-0.3055,-0.2991,-0.2979,-0.2968,-0.2964,-0.2952,-0.31,-0.31,-0.3101,-0.3101,0,-0.2449,-0.2526,-0.2538,-0.2654,-0.2709,-0.2771,-0.2872,-0.2903,-0.2963,-0.3022,-0.3022,-0.3031,-0.3037,-0.3018,-0.3034,-0.2949,-0.3001,-0.3028,-0.2992,-0.2946,-0.2947,-0.2936,-0.3093,-0.3095,-0.3096,-0.3097,0,0,-0.2374,-0.2503,-0.2507,-0.2567,-0.2677,-0.2742,-0.2717,-0.2793,-0.2807,-0.2839,-0.2849,-0.2801,-0.2865,-0.2846,-0.2872,-0.2802,-0.2735,-0.2867,-0.2867,-0.2832,-0.2691,-0.2602,-0.2583,-0.2763,-0.2761,-0.2758,-0.2727,0,-0.2336,-0.2394,-0.2459,-0.2498,-0.2562,-0.2654,-0.2637,-0.2688,-0.2734,-0.2759,-0.274,-0.2764,-0.2773,-0.2802,-0.2727,-0.2786,-0.2702,-0.2743,-0.2765,-0.2766,-0.2667,-0.2564,-0.2445,-0.2395,-0.2716,-0.2714,-0.2713,0,-0.2306,-0.2363,-0.2402,-0.2508,-0.2541,-0.2549,-0.2615,-0.2629,-0.2645,-0.2683,-0.2669,-0.2714,-0.2644,-0.2674,-0.2612,-0.2657,-0.2648,-0.2651,-0.2651,-0.2586,-0.2653,-0.2494,-0.2363,-0.2353,-0.2696,-0.2698,-0.2699,0,-0.224,-0.2334,-0.2371,-0.2404,-0.2509,-0.2524,-0.2571,-0.2603,-0.2634,-0.2647,-0.2677,-0.2629,-0.2634,-0.2593,-0.2582,-0.2619,-0.2526,-0.2581,-0.2471,-0.2468,-0.2373,-0.2364,-0.2198,-0.2485,-0.2485,-0.2485,-0.2485,0,-0.221,-0.224,-0.2349,-0.2373,-0.2419,-0.2499,-0.2537,-0.2569,-0.2614,-0.2572,-0.2644,-0.2598,-0.2617,-0.2576,-0.256,-0.2463,-0.2494,-0.2413,-0.2423,-0.2339,-0.2328,-0.2322,-0.2376,-0.2484,-0.2484,-0.2484,-0.2485,0,-0.2126,-0.2199,-0.2257,-0.236,-0.2394,-0.2423,-0.2534,-0.2514,-0.261,-0.2554,-0.2555,-0.2592,-0.2523,-0.2526,-0.2469,-0.2426,-0.2311,-0.2309,-0.2219,-0.2214,-0.2098,-0.2153,-0.2028,-0.1974,-0.2188,-0.2185,-0.2183,0,-0.2086,-0.2109,-0.2223,-0.2217,-0.2258,-0.2334,-0.2324,-0.2469,-0.2409,-0.2482,-0.2372,-0.241,-0.2288,-0.2249,-0.22,-0.2139,-0.2178,-0.2012,-0.2013,-0.2015,-0.2086,-0.2146,-0.2116,-0.1877,-0.1872,-0.1869,-0.1866,0,-0.1991,-0.2028,-0.2053,-0.2047,-0.2047,-0.2063,-0.2052,-0.2048,-0.2099,-0.2067,-0.1942,-0.1918,-0.1965,-0.187,-0.1896,-0.1845,-0.1962,-0.1928,-0.1939,-0.1799,-0.1844,-0.1824,-0.2021,-0.1831,-0.1834,-0.1837,-0.1839,-0.184,-0.188,-0.1848,-0.1838,-0.1815,-0.1798,-0.1659,-0.1617,-0.1548,-0.1448,-0.1313,-0.142,-0.1319,-0.1588,-0.1611,-0.158,-0.1577,-0.1677,-0.1557,-0.1621,-0.1681,-0.16,-0.1714,-0.1528,-0.153,-0.1531,-0.1532,-0.1533,0,-0.1677,-0.1618,-0.1579,-0.1505,-0.1374,-0.1437,-0.1306,-0.1208,-0.0975,-0.0848,-0.0743,-0.084,-0.0956,-0.1216,-0.1364,-0.1307,-0.1306,-0.1305,-0.1367,-0.1349,-0.1434,-0.1387,-0.1148,-0.1149,-0.1149,-0.1149,-0.1149,-0.1149,-0.1552,-0.1402,-0.1364,-0.1083,-0.1018,-0.0808,-0.07,-0.0561,-0.0452,-0.0218,-0.0163,-0.0216,-0.0692,-0.1179,-0.1287,-0.1233,-0.1243,-0.1186,-0.1254,-0.1338,-0.1368,-0.1397,-0.1359,-0.1119,-0.1119,-0.1093,-0.1094,-0.1094]},{"header":{"parameterUnit":"m.s-1","parameterCategory":2,"la1":30.2991,"la2":30.254,"lo1":-89.0895,"lo2":-89.0444,"dy":0.0017,"dx":0.0017,"nx":28,"ny":28,"refTime":"2024-07-07T03:00:00:Z","depth":"0","parameterNumber":3,"parameterNumberName":"V-component_of_CURRENTS"},"data":[0,0,0,0,0,0,0,0,0,0,0,0,0,0,0,0,0,0,0,0,0,0,0,0,0,0,0,0,0,0,0,0,0,0,0,0,0,0,0,0,0,0,0,0,0,0,0,0,0,0,0,0,0,0,0,0,0,0,0.0087,0.0089,0,0.0339,0.0342,0.0345,0.053,0.0531,0.0533,0.0534,0.064,0.0641,0.0643,0,0,0,0,0,0,0,0,0,0,0,0,0,-0.0169,-0.0166,0.0087,0.009,0.0093,0.0339,0.0343,0.0346,0.053,0.0531,0.0533,0.0535,0.0639,0.0641,0.0643,0,0,0,0,0,0,0,0,0,0,0,0,0,-0.0,-0.0165,0.0086,0.0213,0.0226,0.0338,0.0343,0.0347,0.0529,0.0531,0.0533,0.0535,0.0639,0.0641,0.0643,0.0615,0,0,0.065,0.0651,0,0,0,0,0,0,0,0,-0.001,0.0009,0.0191,0.0204,0.022,0.0404,0.0292,0.0429,0.0529,0.0416,0.0534,0.0536,0.0544,0.0555,0.0602,0.062,0.0625,0.065,0.0652,0.0653,0.0653,0,0,0,0,0,0,0,-0.0022,-0.0,0.0189,0.0194,0.0211,0.028,0.0306,0.0319,0.0464,0.0426,0.044,0.0464,0.0552,0.06,0.0605,0.0626,0.065,0.0652,0.0654,0.0655,0.0697,0.0697,0,0,0,0,0,0,-0.0062,-0.0012,0.0181,0.0196,0.0106,0.0282,0.0311,0.0344,0.0468,0.0489,0.0462,0.0472,0.0595,0.0603,0.061,0.0599,0.0653,0.0655,0.0656,0.0697,0.0697,0.0697,0,0,0,0,0,0,-0.0069,-0.0047,0.017,0.0096,0.0128,0.0284,0.0319,0.0348,0.0398,0.0496,0.0516,0.0482,0.0597,0.0606,0.0638,0.0603,0.0656,0.0658,0.0697,0.0697,0.0697,0.0565,0,0,0,0,0,0,-0.0077,-0.0051,-0.0057,0.0093,0.0131,0.022,0.0318,0.0351,0.0409,0.0424,0.0519,0.0533,0.0599,0.0634,0.064,0.0607,0.066,0.0698,0.0697,0.0697,0.057,0.0561,0.0553,0,0,0,0,0,-0.0087,-0.0108,-0.0059,-0.0036,0.0123,0.0218,0.0243,0.0362,0.0407,0.0416,0.0498,0.053,0.0636,0.0636,0.0643,0.0609,0.0698,0.0697,0.0697,0.0574,0.0562,0.0553,0,0,0,0,0,0,-0.0218,-0.0086,-0.003,-0.0008,0.009,0.0248,0.0258,0.0341,0.0417,0.042,0.0521,0.0539,0.0568,0.06,0.0598,0.0626,0.0673,0.0673,0.0577,0.0566,0.0558,0.0503,0.0661,0,0,0,0,0,-0.0254,-0.0237,-0.0092,-0.0078,-0.0041,0.0102,0.0148,0.0231,0.0326,0.0365,0.044,0.0508,0.057,0.0576,0.0642,0.0624,0.0672,0.0612,0.0603,0.0595,0.0559,0.0613,0.0605,0.0695,0.0695,0.0695,0,0,-0.0297,-0.023,-0.0215,-0.0107,-0.0026,0.0018,0.0135,0.0191,0.0227,0.0352,0.0396,0.0483,0.0568,0.0592,0.0602,0.0606,0.0603,0.0595,0.0587,0.0554,0.0612,0.0603,0.0595,0.0695,0.0695,0.0695,0,0,-0.0372,-0.0322,-0.0321,-0.0258,-0.0155,-0.0071,-0.0065,0.008,0.0138,0.0193,0.0309,0.036,0.0443,0.0502,0.054,0.0503,0.0576,0.0533,0.041,0.0464,0.0456,0.0449,0.0523,0.0524,0.0501,0.0501,0.0501,0,-0.0427,-0.0398,-0.031,-0.0292,-0.0251,-0.0123,-0.0105,-0.0039,0.01,0.0134,0.0181,0.0336,0.0395,0.0432,0.0432,0.0475,0.0536,0.044,0.0448,0.0443,0.0439,0.0515,0.0518,0.0494,0.0495,0.0496,0.0496,0,-0.0476,-0.0461,-0.0468,-0.0398,-0.0354,-0.0328,-0.022,-0.0179,-0.0103,-0.0014,0.0055,0.0159,0.0249,0.0276,0.0336,0.0338,0.0404,0.0451,0.0464,0.0421,0.0506,0.0511,0.0485,0.0487,0.0489,0.0491,0,0,-0.0551,-0.0507,-0.0505,-0.0494,-0.0407,-0.0368,-0.0349,-0.0268,-0.0238,-0.0146,-0.0097,-0.0016,0.0058,0.0104,0.0192,0.0207,0.0234,0.0291,0.0297,0.0343,0.0375,0.0449,0.0463,0.0291,0.0291,0.0291,0.0455,0,-0.06,-0.0618,-0.0566,-0.0573,-0.0568,-0.0473,-0.0451,-0.0378,-0.0297,-0.0227,-0.0146,-0.006,-0.0012,0.0044,0.0059,0.0223,0.0238,0.0185,0.0427,0.0433,0.0487,0.0467,0.0512,0.0664,0.0461,0.0462,0.0462,0,-0.064,-0.0651,-0.0677,-0.0648,-0.0632,-0.0619,-0.0556,-0.0516,-0.0415,-0.0344,-0.0281,-0.0171,-0.0115,-0.0062,0.0096,0.0072,0.0186,0.0284,0.0295,0.04,0.0514,0.0673,0.0682,0.0823,0.0471,0.0471,0.047,0,-0.0723,-0.0717,-0.075,-0.074,-0.0691,-0.0684,-0.065,-0.056,-0.0489,-0.0417,-0.0334,-0.0262,-0.0161,-0.006,0.014,0.0129,0.0335,0.0363,0.0526,0.0535,0.0635,0.0652,0.0783,0.0437,0.0437,0.0437,0.0436,0,-0.0787,-0.0805,-0.0797,-0.0812,-0.0828,-0.0768,-0.0742,-0.0691,-0.057,-0.0437,-0.0401,-0.0257,-0.0154,0.0004,0.0128,0.0358,0.0335,0.0492,0.057,0.0596,0.0607,0.0784,0.0837,0.0443,0.0441,0.044,0.0439,0,-0.0854,-0.0854,-0.0885,-0.0874,-0.0867,-0.0879,-0.0774,-0.069,-0.0625,-0.0445,-0.0405,-0.0231,-0.0037,0.0079,0.0293,0.0394,0.0677,0.0654,0.0682,0.0757,0.1006,0.105,0.1241,0.1342,0.0841,0.0843,0.0846,0,-0.088,-0.0915,-0.0938,-0.0917,-0.0907,-0.0897,-0.081,-0.0728,-0.0578,-0.0362,-0.0213,-0.0055,0.0161,0.0431,0.057,0.0753,0.0838,0.0921,0.0874,0.101,0.1118,0.1133,0.1204,0.0979,0.0982,0.0984,0.0986,0,-0.0899,-0.0916,-0.0922,-0.0909,-0.0849,-0.0785,-0.0656,-0.0565,-0.0365,-0.0215,0.0107,0.0254,0.0486,0.0701,0.0836,0.0949,0.1031,0.098,0.1116,0.1213,0.1244,0.1384,0.0895,0.1009,0.1006,0.1005,0.1004,0.1003,-0.0849,-0.0869,-0.0841,-0.0827,-0.0759,-0.0607,-0.0532,-0.0336,-0.0132,0.0147,0.0353,0.0605,0.0865,0.1048,0.1169,0.1328,0.1262,0.139,0.1431,0.1433,0.1518,0.1076,0.1275,0.1275,0.1274,0.1273,0.1273,0,-0.068,-0.0705,-0.0715,-0.065,-0.0537,-0.0536,-0.033,-0.0208,0.004,0.0272,0.0549,0.1025,0.125,0.1412,0.1609,0.1763,0.178,0.1823,0.1847,0.1898,0.1518,0.151,0.1775,0.1775,0.1774,0.1774,0.1774,0.1774,-0.0547,-0.0506,-0.0558,-0.0406,-0.0368,-0.0192,-0.0088,0.0067,0.0221,0.0566,0.0838,0.109,0.1435,0.1868,0.2117,0.2145,0.2299,0.2262,0.2351,0.2074,0.2036,0.1999,0.2004,0.2368,0.2369,0.272,0.2723,0.2726]}],[{"header":{"parameterUnit":"m.s-1","parameterCategory":2,"la1":30.2991,"la2":30.254,"lo1":-89.0895,"lo2":-89.0444,"dy":0.0017,"dx":0.0017,"nx":28,"ny":28,"refTime":"2024-07-07T03:00:00:Z","depth":"2","parameterNumber":2,"parameterNumberName":"U-component_of_CURRENTS"},"data":[0,0,0,0,0,0,0,0,0,0,0,0,0,0,0,0,0,0,0,0,0,0,0,0,0,0,0,0,0,0,0,0,0,0,0,0,0,0,0,0,0,0,0,0,0,0,0,0,0,0,0,0,0,0,0,0,0,0,-0.245,-0.2451,0,-0.2523,-0.2523,-0.2524,-0.2425,-0.2422,-0.2419,-0.2416,-0.2425,-0.2428,-0.2432,0,0,0,0,0,0,0,0,0,0,0,0,0,-0.2295,-0.2298,-0.245,-0.2451,-0.2452,-0.2523,-0.2523,-0.2524,-0.2426,-0.2422,-0.2418,-0.2415,-0.2424,-0.2428,-0.2432,0,0,0,0,0,0,0,0,0,0,0,0,0,-0.236,-0.2299,-0.2449,-0.2415,-0.2413,-0.2522,-0.2523,-0.2524,-0.2427,-0.2422,-0.2417,-0.2413,-0.2423,-0.2428,-0.2432,-0.2555,0,0,-0.2447,-0.2449,0,0,0,0,0,0,0,0,-0.2357,-0.2365,-0.2419,-0.2418,-0.2416,-0.2464,-0.2472,-0.2533,-0.2428,-0.2417,-0.2416,-0.2411,-0.2439,-0.2442,-0.246,-0.2555,-0.2556,-0.2447,-0.245,-0.2452,-0.2453,0,0,0,0,0,0,0,-0.2352,-0.2362,-0.2474,-0.2421,-0.2419,-0.2421,-0.2424,-0.2484,-0.2448,-0.2417,-0.2411,-0.2429,-0.2436,-0.2456,-0.246,-0.2556,-0.2447,-0.2451,-0.2454,-0.2456,-0.2644,-0.2646,0,0,0,0,0,0,-0.2355,-0.2358,-0.2471,-0.2476,-0.2379,-0.2427,-0.243,-0.245,-0.2449,-0.2446,-0.2433,-0.2424,-0.245,-0.2454,-0.246,-0.2456,-0.2452,-0.2456,-0.2459,-0.2642,-0.2644,-0.2647,0,0,0,0,0,0,-0.2351,-0.2365,-0.2469,-0.2422,-0.2436,-0.2435,-0.2457,-0.2454,-0.2467,-0.2462,-0.2456,-0.2448,-0.2447,-0.2453,-0.2478,-0.2461,-0.2459,-0.2463,-0.2639,-0.2642,-0.2645,-0.2544,0,0,0,0,0,0,-0.2347,-0.2363,-0.2386,-0.2423,-0.2439,-0.2489,-0.2462,-0.2459,-0.2487,-0.2476,-0.2475,-0.2471,-0.2444,-0.2471,-0.2482,-0.2467,-0.2466,-0.2636,-0.2641,-0.2644,-0.2545,-0.2544,-0.2543,0,0,0,0,0,-0.2341,-0.2371,-0.2386,-0.24,-0.2467,-0.249,-0.2496,-0.2478,-0.2493,-0.2478,-0.2485,-0.247,-0.2504,-0.2476,-0.249,-0.2475,-0.2634,-0.2639,-0.2644,-0.2546,-0.2544,-0.2543,0,0,0,0,0,0,-0.2306,-0.2367,-0.2382,-0.2428,-0.2444,-0.2473,-0.2483,-0.2503,-0.251,-0.2509,-0.2503,-0.25,-0.2496,-0.2544,-0.2513,-0.2551,-0.2569,-0.2577,-0.249,-0.2489,-0.2488,-0.2481,-0.247,0,0,0,0,0,-0.2322,-0.2354,-0.2402,-0.2431,-0.245,-0.2486,-0.2506,-0.2502,-0.2519,-0.2517,-0.2524,-0.2546,-0.2541,-0.2556,-0.2558,-0.2618,-0.2624,-0.2625,-0.2623,-0.2621,-0.2632,-0.2609,-0.2604,-0.2663,-0.2663,-0.2663,0,0,-0.2314,-0.2356,-0.2371,-0.2427,-0.2449,-0.247,-0.2481,-0.2509,-0.2516,-0.2527,-0.254,-0.2535,-0.2553,-0.2553,-0.2564,-0.2585,-0.2612,-0.2628,-0.2624,-0.2637,-0.2613,-0.2607,-0.2601,-0.2666,-0.2665,-0.2665,0,0,-0.2302,-0.2357,-0.2375,-0.2401,-0.2448,-0.2471,-0.2486,-0.253,-0.2526,-0.2561,-0.2542,-0.2534,-0.2586,-0.2554,-0.2557,-0.2589,-0.2587,-0.2611,-0.2615,-0.2591,-0.2583,-0.2577,-0.257,-0.2564,-0.2632,-0.2632,-0.2632,0,-0.2287,-0.2333,-0.2377,-0.2402,-0.2429,-0.2473,-0.2493,-0.251,-0.2548,-0.2555,-0.2545,-0.2573,-0.2572,-0.2557,-0.2544,-0.2574,-0.2578,-0.2595,-0.258,-0.2574,-0.257,-0.2564,-0.2558,-0.2628,-0.2628,-0.2629,-0.2629,0,-0.2285,-0.2329,-0.2342,-0.239,-0.2415,-0.2443,-0.248,-0.2501,-0.253,-0.2541,-0.2535,-0.2529,-0.2542,-0.2538,-0.2546,-0.2528,-0.2545,-0.2548,-0.2559,-0.2556,-0.2552,-0.2548,-0.2621,-0.2623,-0.2624,-0.2625,0,0,-0.2225,-0.2322,-0.2323,-0.2361,-0.2423,-0.2445,-0.2464,-0.249,-0.2511,-0.2515,-0.2523,-0.2496,-0.2503,-0.2512,-0.2515,-0.2507,-0.2459,-0.2527,-0.2528,-0.2478,-0.242,-0.2326,-0.2313,-0.245,-0.2449,-0.2448,-0.2425,0,-0.2206,-0.2258,-0.2307,-0.235,-0.2391,-0.244,-0.2457,-0.2484,-0.2502,-0.2517,-0.25,-0.2501,-0.2492,-0.2497,-0.2477,-0.247,-0.2448,-0.2466,-0.247,-0.2471,-0.2351,-0.2305,-0.2131,-0.2087,-0.2421,-0.242,-0.242,0,-0.2183,-0.2233,-0.2274,-0.2369,-0.2388,-0.2407,-0.2459,-0.2482,-0.2501,-0.2516,-0.2505,-0.2506,-0.249,-0.2484,-0.2445,-0.2461,-0.2437,-0.2424,-0.2423,-0.237,-0.2369,-0.2153,-0.2067,-0.2413,-0.2414,-0.2414,-0.2415,0,-0.2129,-0.2213,-0.2251,-0.228,-0.2376,-0.2393,-0.2433,-0.2468,-0.2497,-0.2512,-0.2527,-0.2506,-0.2499,-0.2467,-0.2429,-0.2447,-0.2378,-0.2398,-0.2285,-0.228,-0.2153,-0.2136,-0.2349,-0.2349,-0.2349,-0.2349,-0.2349,0,-0.2106,-0.2136,-0.2232,-0.2255,-0.2292,-0.2372,-0.2401,-0.2436,-0.249,-0.2518,-0.2522,-0.2516,-0.2493,-0.2452,-0.2425,-0.2327,-0.2365,-0.2269,-0.2254,-0.2116,-0.2098,-0.2411,-0.2418,-0.2348,-0.2348,-0.2348,-0.2348,0,-0.2032,-0.2101,-0.215,-0.2244,-0.2269,-0.2289,-0.238,-0.2394,-0.2471,-0.2507,-0.2515,-0.2518,-0.245,-0.2405,-0.2347,-0.2304,-0.2238,-0.2189,-0.2033,-0.1998,-0.217,-0.2173,-0.2084,-0.2081,-0.2077,-0.2075,-0.2072,0,-0.1999,-0.2018,-0.2106,-0.211,-0.2145,-0.2198,-0.2218,-0.2343,-0.2374,-0.2494,-0.2489,-0.246,-0.2384,-0.2248,-0.2132,-0.2029,-0.2118,-0.185,-0.184,-0.2141,-0.2136,-0.2145,-0.2153,-0.1643,-0.1638,-0.1633,-0.163,0,-0.1912,-0.1937,-0.1959,-0.1982,-0.2004,-0.2053,-0.2115,-0.2166,-0.2319,-0.2397,-0.2448,-0.2413,-0.2232,-0.2001,-0.1837,-0.1767,-0.1856,-0.1754,-0.208,-0.1734,-0.1722,-0.1719,-0.1741,-0.1589,-0.1593,-0.1596,-0.1598,-0.16,-0.1804,-0.1791,-0.1811,-0.1818,-0.1845,-0.1888,-0.1894,-0.1985,-0.2085,-0.2158,-0.2306,-0.2191,-0.2047,-0.1673,-0.1545,-0.1426,-0.1561,-0.1518,-0.1534,-0.1554,-0.1504,-0.1486,-0.1301,-0.1303,-0.1305,-0.1307,-0.1309,0,-0.1669,-0.1656,-0.1645,-0.1649,-0.1615,-0.1709,-0.1788,-0.1754,-0.1808,-0.1913,-0.1972,-0.1765,-0.156,-0.1395,-0.1136,-0.1087,-0.1091,-0.1054,-0.107,-0.1109,-0.1144,-0.1076,-0.0758,-0.0757,-0.0755,-0.0754,0,0,-0.1584,-0.1525,-0.1528,-0.1419,-0.142,-0.1354,-0.1385,-0.1373,-0.1398,-0.1405,-0.1399,-0.1527,-0.1416,-0.1145,-0.103,-0.0853,-0.0988,-0.0805,-0.1242,-0.1304,-0.1339,-0.1397,-0.1332,0,0,0,0,0]},{"header":{"parameterUnit":"m.s-1","parameterCategory":2,"la1":30.2991,"la2":30.254,"lo1":-89.0895,"lo2":-89.0444,"dy":0.0017,"dx":0.0017,"nx":28,"ny":28,"refTime":"2024-07-07T03:00:00:Z","depth":"2","parameterNumber":3,"parameterNumberName":"V-component_of_CURRENTS"},"data":[0,0,0,0,0,0,0,0,0,0,0,0,0,0,0,0,0,0,0,0,0,0,0,0,0,0,0,0,0,0,0,0,0,0,0,0,0,0,0,0,0,0,0,0,0,0,0,0,0,0,0,0,0,0,0,0,0,0,-0.0301,-0.0301,0,-0.0279,-0.028,-0.028,-0.0327,-0.0328,-0.0329,-0.0329,-0.0204,-0.02,-0.0196,0,0,0,0,0,0,0,0,0,0,0,0,0,-0.0353,-0.0352,-0.0301,-0.0301,-0.03,-0.0279,-0.028,-0.028,-0.0326,-0.0328,-0.0329,-0.033,-0.0206,-0.0201,-0.0196,0,0,0,0,0,0,0,0,0,0,0,0,0,-0.0336,-0.0352,-0.0302,-0.0316,-0.0317,-0.0279,-0.028,-0.028,-0.0326,-0.0328,-0.0329,-0.033,-0.0207,-0.0201,-0.0195,-0.0126,0,0,-0.0175,-0.0173,0,0,0,0,0,0,0,0,-0.0337,-0.0335,-0.0315,-0.0315,-0.0316,-0.0302,-0.0252,-0.0221,-0.0326,-0.0329,-0.0329,-0.0331,-0.0222,-0.0215,-0.0217,-0.012,-0.0114,-0.0175,-0.0171,-0.0168,-0.0166,0,0,0,0,0,0,0,-0.0338,-0.0336,-0.0298,-0.0314,-0.0314,-0.0313,-0.0313,-0.0247,-0.027,-0.0329,-0.033,-0.0318,-0.0223,-0.0223,-0.0214,-0.0112,-0.0175,-0.0169,-0.0165,-0.0163,0.0039,0.004,0,0,0,0,0,0,-0.0329,-0.0337,-0.0299,-0.0297,-0.0324,-0.0311,-0.0311,-0.031,-0.0273,-0.0268,-0.0317,-0.0321,-0.0234,-0.0222,-0.021,-0.0154,-0.0168,-0.0162,-0.0159,0.0037,0.0039,0.0041,0,0,0,0,0,0,-0.0331,-0.0327,-0.03,-0.0312,-0.0307,-0.0308,-0.0306,-0.0308,-0.0308,-0.0264,-0.0259,-0.0314,-0.0234,-0.0219,-0.0161,-0.0148,-0.0159,-0.0153,0.0035,0.0038,0.004,-0.0022,0,0,0,0,0,0,-0.0333,-0.0328,-0.033,-0.0311,-0.0306,-0.0294,-0.0304,-0.0307,-0.0296,-0.03,-0.0259,-0.025,-0.0234,-0.0171,-0.0155,-0.0139,-0.0149,0.0033,0.0036,0.0039,-0.0022,-0.0022,-0.0022,0,0,0,0,0,-0.0335,-0.0346,-0.0331,-0.0326,-0.0308,-0.0294,-0.0293,-0.0301,-0.0294,-0.0304,-0.027,-0.0251,-0.0141,-0.0165,-0.0146,-0.0129,0.0032,0.0036,0.0039,-0.0022,-0.0022,-0.0022,0,0,0,0,0,0,-0.0388,-0.0349,-0.0334,-0.0337,-0.0316,-0.03,-0.0308,-0.029,-0.0272,-0.027,-0.023,-0.0218,-0.0171,-0.0124,-0.0151,-0.0058,-0.005,-0.0043,-0.0102,-0.0102,-0.0102,-0.0119,-0.0143,0,0,0,0,0,-0.039,-0.0386,-0.0345,-0.0352,-0.0337,-0.0312,-0.0305,-0.03,-0.0274,-0.027,-0.0232,-0.0182,-0.0138,-0.0103,-0.0065,0.0004,0.0041,0.0031,0.003,0.003,0.0032,0.0089,0.0093,0.0052,0.0052,0.0052,0,0,-0.0414,-0.0392,-0.0392,-0.0361,-0.0347,-0.033,-0.0316,-0.0305,-0.0289,-0.025,-0.022,-0.0185,-0.0123,-0.0079,-0.0049,-0.0037,0.0063,0.0034,0.0032,0.0035,0.0093,0.0097,0.01,0.0054,0.0054,0.0053,0,0,-0.0458,-0.0436,-0.0439,-0.0415,-0.0378,-0.0353,-0.0342,-0.0307,-0.0295,-0.0245,-0.0223,-0.0175,-0.0095,-0.0063,-0.003,0.0012,0.0048,0.003,0.0029,0.0084,0.0087,0.009,0.014,0.0148,0.0043,0.0043,0.0043,0,-0.0489,-0.0483,-0.0442,-0.0431,-0.0414,-0.0358,-0.0353,-0.0321,-0.0273,-0.025,-0.0243,-0.0137,-0.0088,-0.0028,-0.0026,0.0009,0.004,0.0014,0.0079,0.0084,0.0088,0.0138,0.0148,0.004,0.004,0.0041,0.0041,0,-0.0521,-0.0513,-0.0516,-0.0476,-0.0452,-0.0443,-0.0377,-0.0347,-0.0306,-0.0269,-0.0207,-0.0145,-0.0084,-0.0055,-0.0028,0.0032,0.0043,0.0055,0.0067,0.0087,0.0141,0.0152,0.0037,0.0037,0.0038,0.0039,0,0,-0.0592,-0.0549,-0.0548,-0.0538,-0.0473,-0.0461,-0.0413,-0.036,-0.033,-0.0267,-0.0229,-0.0146,-0.0113,-0.0072,-0.0026,0.0033,0.009,0.0054,0.0058,0.0082,0.0205,0.023,0.0244,0.0102,0.0103,0.0105,0.0228,0,-0.063,-0.0639,-0.0589,-0.0584,-0.0581,-0.0504,-0.0467,-0.0406,-0.0345,-0.0291,-0.0205,-0.0156,-0.0117,-0.0092,-0.0027,0.0055,0.0117,0.0055,0.0203,0.0208,0.0208,0.0257,0.0225,0.0333,0.0239,0.0241,0.0242,0,-0.0666,-0.0669,-0.0682,-0.064,-0.0627,-0.0607,-0.0539,-0.0497,-0.0394,-0.0345,-0.0271,-0.0207,-0.0109,-0.0084,0.0075,0.0029,0.0113,0.0182,0.0189,0.0241,0.0253,0.0303,0.0357,0.0261,0.0259,0.0258,0.0257,0,-0.0744,-0.0724,-0.0744,-0.073,-0.0672,-0.0657,-0.062,-0.0526,-0.0485,-0.0385,-0.0339,-0.0226,-0.0157,-0.0045,0.0104,0.0088,0.0278,0.0276,0.0382,0.0384,0.0404,0.0405,0.0391,0.0391,0.0391,0.0391,0.039,0,-0.0799,-0.0808,-0.0788,-0.0798,-0.0811,-0.0735,-0.0718,-0.0656,-0.0559,-0.0522,-0.0383,-0.0307,-0.0144,-0.0013,0.0103,0.0283,0.0283,0.0396,0.0425,0.0383,0.0381,0.0354,0.0348,0.0395,0.0394,0.0393,0.0392,0,-0.0869,-0.0857,-0.0881,-0.0855,-0.0852,-0.0863,-0.0799,-0.0785,-0.0665,-0.061,-0.058,-0.036,-0.0175,-0.0007,0.0198,0.0293,0.045,0.0512,0.0451,0.0471,0.0518,0.0507,0.0643,0.0645,0.0647,0.0648,0.065,0,-0.0902,-0.0929,-0.0949,-0.0983,-0.0977,-0.0977,-0.0982,-0.0872,-0.0853,-0.064,-0.0628,-0.0394,-0.0225,0.0115,0.0318,0.0536,0.0523,0.0617,0.0588,0.0532,0.0547,0.0534,0.0522,0.0592,0.0593,0.0593,0.0594,0,-0.0973,-0.0986,-0.1017,-0.1092,-0.1126,-0.114,-0.1135,-0.1121,-0.099,-0.0879,-0.0654,-0.0469,-0.0109,0.0176,0.0444,0.0553,0.0575,0.0635,0.0615,0.0526,0.0493,0.0504,0.0493,0.0599,0.0598,0.0598,0.0598,0.0597,-0.1038,-0.1086,-0.114,-0.12,-0.1248,-0.1281,-0.1291,-0.125,-0.1165,-0.0969,-0.0765,-0.045,-0.0152,0.0271,0.0487,0.0683,0.0673,0.0694,0.0689,0.0684,0.0649,0.062,0.0743,0.0743,0.0744,0.0744,0.0744,0,-0.1124,-0.1171,-0.1241,-0.1315,-0.1372,-0.1368,-0.1378,-0.1334,-0.1244,-0.1008,-0.0772,-0.0423,-0.0089,0.024,0.0579,0.076,0.073,0.0762,0.0694,0.0688,0.0683,0.0644,0.074,0.0741,0.0741,0.0742,0,0,-0.1188,-0.1268,-0.1291,-0.1397,-0.1448,-0.1487,-0.1491,-0.1396,-0.1222,-0.095,-0.0705,-0.0457,-0.0037,0.0169,0.0413,0.0616,0.0595,0.0613,0.0594,0.0481,0.0474,0.0621,0.0553,0,0,0,0,0]}],[{"header":{"parameterUnit":"m.s-1","parameterCategory":2,"la1":30.2991,"la2":30.254,"lo1":-89.0895,"lo2":-89.0444,"dy":0.0017,"dx":0.0017,"nx":28,"ny":28,"refTime":"2024-07-07T03:00:00:Z","depth":"4","parameterNumber":2,"parameterNumberName":"U-component_of_CURRENTS"},"data":[0,0,0,0,0,0,0,0,0,0,0,0,0,0,0,0,0,0,0,0,0,0,0,0,0,0,0,0,0,0,0,0,0,0,0,0,0,0,0,0,0,0,0,0,0,0,0,0,0,0,0,0,0,0,0,0,0,0,-0.1646,-0.1646,0,-0.1642,-0.1642,-0.1641,-0.1639,-0.1639,-0.1639,-0.1639,-0.1688,-0.1689,-0.1691,0,0,0,0,0,0,0,0,0,0,0,0,0,-0.1625,-0.1626,-0.1646,-0.1646,-0.1646,-0.1642,-0.1642,-0.1641,-0.1639,-0.1639,-0.1639,-0.1639,-0.1688,-0.1689,-0.1691,0,0,0,0,0,0,0,0,0,0,0,0,0,-0.1628,-0.1626,-0.1646,-0.1645,-0.1645,-0.1642,-0.1642,-0.1641,-0.1639,-0.1639,-0.1639,-0.1639,-0.1687,-0.1689,-0.1691,-0.1701,0,0,-0.1697,-0.1698,0,0,0,0,0,0,0,0,-0.1628,-0.1629,-0.1645,-0.1645,-0.1645,-0.1641,-0.1652,-0.1664,-0.1639,-0.1641,-0.1639,-0.1639,-0.1678,-0.168,-0.1678,-0.1704,-0.1706,-0.1697,-0.1698,-0.1699,-0.1699,0,0,0,0,0,0,0,-0.1628,-0.1629,-0.1644,-0.1645,-0.1645,-0.1635,-0.1636,-0.1654,-0.1659,-0.1641,-0.164,-0.1641,-0.1678,-0.1676,-0.1679,-0.1706,-0.1697,-0.1698,-0.17,-0.17,-0.1753,-0.1753,0,0,0,0,0,0,-0.1631,-0.1629,-0.1644,-0.1644,-0.1637,-0.1635,-0.1636,-0.1642,-0.1658,-0.166,-0.1641,-0.1641,-0.1673,-0.1677,-0.1681,-0.1744,-0.1699,-0.1701,-0.1702,-0.1752,-0.1753,-0.1753,0,0,0,0,0,0,-0.1631,-0.1633,-0.1644,-0.1636,-0.1637,-0.1636,-0.1642,-0.1642,-0.1667,-0.1658,-0.1661,-0.167,-0.1673,-0.1678,-0.1713,-0.1744,-0.1701,-0.1703,-0.1752,-0.1753,-0.1753,-0.1839,0,0,0,0,0,0,-0.163,-0.1633,-0.166,-0.1637,-0.1638,-0.1658,-0.1642,-0.1642,-0.1666,-0.1667,-0.1684,-0.1686,-0.1673,-0.171,-0.1715,-0.1746,-0.1705,-0.1752,-0.1752,-0.1753,-0.1836,-0.1842,-0.1848,0,0,0,0,0,-0.163,-0.1658,-0.1661,-0.1664,-0.1668,-0.1659,-0.166,-0.1658,-0.1668,-0.1682,-0.1691,-0.1687,-0.1716,-0.1713,-0.1718,-0.1751,-0.1752,-0.1752,-0.1753,-0.1833,-0.1841,-0.1848,0,0,0,0,0,0,-0.1658,-0.166,-0.1663,-0.1691,-0.1685,-0.166,-0.1682,-0.168,-0.1698,-0.1715,-0.1703,-0.1707,-0.1738,-0.1732,-0.1728,-0.1761,-0.1728,-0.173,-0.1787,-0.1795,-0.1801,-0.1822,-0.1706,0,0,0,0,0,-0.1679,-0.1705,-0.1691,-0.1715,-0.172,-0.171,-0.1717,-0.1715,-0.1717,-0.1726,-0.1732,-0.1738,-0.1739,-0.176,-0.1753,-0.1794,-0.1775,-0.181,-0.1816,-0.1822,-0.1839,-0.1827,-0.1834,-0.1755,-0.1755,-0.1755,0,0,-0.1692,-0.1701,-0.1714,-0.1724,-0.1725,-0.1739,-0.1715,-0.1736,-0.1757,-0.1731,-0.1777,-0.1762,-0.1749,-0.1775,-0.179,-0.1784,-0.1832,-0.1823,-0.1828,-0.1842,-0.1828,-0.1836,-0.1843,-0.1755,-0.1755,-0.1755,0,0,-0.1713,-0.1746,-0.1765,-0.1775,-0.1788,-0.1786,-0.18,-0.1796,-0.1811,-0.1843,-0.1819,-0.1835,-0.1846,-0.1842,-0.1841,-0.1883,-0.1853,-0.187,-0.194,-0.1929,-0.1936,-0.1942,-0.1925,-0.1929,-0.1887,-0.1888,-0.1888,0,-0.1728,-0.1755,-0.1768,-0.1789,-0.1805,-0.1813,-0.1832,-0.1852,-0.186,-0.1871,-0.1872,-0.1874,-0.188,-0.1899,-0.1915,-0.1903,-0.1879,-0.192,-0.194,-0.1945,-0.195,-0.1931,-0.1934,-0.1892,-0.1891,-0.1891,-0.1891,0,-0.1744,-0.1787,-0.1803,-0.1837,-0.1858,-0.1882,-0.1903,-0.1932,-0.1956,-0.1957,-0.1982,-0.198,-0.1977,-0.1981,-0.1975,-0.2003,-0.1969,-0.1939,-0.1929,-0.1963,-0.194,-0.1942,-0.1898,-0.1896,-0.1895,-0.1894,0,0,-0.1707,-0.1796,-0.1803,-0.1838,-0.189,-0.1902,-0.1959,-0.1986,-0.2018,-0.2041,-0.2064,-0.2088,-0.2077,-0.2074,-0.2058,-0.2074,-0.2101,-0.2037,-0.2034,-0.2034,-0.2067,-0.1912,-0.1898,-0.2069,-0.2069,-0.207,-0.2037,0,-0.1709,-0.1768,-0.181,-0.1874,-0.1907,-0.1951,-0.1998,-0.2036,-0.2064,-0.2093,-0.2107,-0.2121,-0.2114,-0.2118,-0.2134,-0.2099,-0.211,-0.2113,-0.2021,-0.2019,-0.1888,-0.1896,-0.2073,-0.2038,-0.2038,-0.2039,-0.2039,0,-0.1695,-0.1745,-0.1807,-0.1904,-0.1921,-0.1964,-0.2034,-0.2075,-0.2124,-0.2145,-0.2166,-0.2162,-0.2195,-0.2178,-0.2166,-0.2162,-0.2132,-0.2111,-0.2107,-0.1937,-0.1867,-0.1993,-0.2041,-0.2041,-0.2041,-0.2041,-0.2041,0,-0.1647,-0.1741,-0.1797,-0.1829,-0.1933,-0.1972,-0.2024,-0.2084,-0.2118,-0.2173,-0.2191,-0.2212,-0.2217,-0.2199,-0.2158,-0.2165,-0.2121,-0.2115,-0.1947,-0.1936,-0.2052,-0.2045,-0.2106,-0.2106,-0.2107,-0.2107,-0.2107,0,-0.1619,-0.1669,-0.1788,-0.1819,-0.1879,-0.1963,-0.2019,-0.2069,-0.2139,-0.2155,-0.2211,-0.2205,-0.2222,-0.219,-0.2162,-0.2041,-0.2115,-0.1959,-0.1915,-0.2086,-0.2084,-0.2052,-0.2046,-0.2105,-0.2106,-0.2106,-0.2106,0,-0.1548,-0.1633,-0.1702,-0.1823,-0.1859,-0.1898,-0.2006,-0.2029,-0.2124,-0.2143,-0.2162,-0.2203,-0.2145,-0.2127,-0.2081,-0.2015,-0.1939,-0.1876,-0.2054,-0.202,-0.1771,-0.177,-0.1705,-0.1699,-0.1694,-0.169,-0.1686,0,-0.1513,-0.1546,-0.1674,-0.1697,-0.1753,-0.183,-0.1861,-0.1989,-0.2007,-0.2106,-0.2086,-0.2084,-0.2075,-0.1893,-0.1897,-0.1807,-0.1782,-0.1753,-0.1784,-0.1765,-0.1729,-0.1736,-0.1742,-0.1679,-0.1677,-0.1676,-0.1675,0,-0.1429,-0.1487,-0.1531,-0.1586,-0.1634,-0.1683,-0.1748,-0.1764,-0.1882,-0.1991,-0.1956,-0.1921,-0.184,-0.1781,-0.1701,-0.1647,-0.1786,-0.1702,-0.1713,-0.1742,-0.1733,-0.1704,-0.1715,-0.1658,-0.166,-0.1662,-0.1663,0,-0.1343,-0.1349,-0.1409,-0.1438,-0.1491,-0.1503,-0.1573,-0.1598,-0.1654,-0.179,-0.176,-0.1766,-0.1812,-0.1692,-0.1625,-0.1546,-0.1536,-0.1519,-0.154,-0.1559,-0.152,-0.1488,-0.1297,0,0,0,0,0,-0.1247,-0.1234,-0.125,-0.1275,-0.1321,-0.1356,-0.1465,-0.1543,-0.1675,-0.1604,-0.1692,-0.1613,-0.1531,-0.1538,-0.1416,-0.1527,-0.1522,-0.1383,-0.1511,-0.1563,-0.1583,-0.1547,0,0,0,0,0,0,-0.1174,-0.1188,-0.1197,-0.1125,-0.1106,-0.1147,-0.1215,-0.1315,-0.1303,-0.1444,-0.1396,-0.1508,-0.1428,-0.1542,-0.1371,-0.1369,-0.142,-0.1401,-0.1397,-0.1552,-0.157,-0.1586,-0.1555,0,0,0,0,0]},{"header":{"parameterUnit":"m.s-1","parameterCategory":2,"la1":30.2991,"la2":30.254,"lo1":-89.0895,"lo2":-89.0444,"dy":0.0017,"dx":0.0017,"nx":28,"ny":28,"refTime":"2024-07-07T03:00:00:Z","depth":"4","parameterNumber":3,"parameterNumberName":"V-component_of_CURRENTS"},"data":[0,0,0,0,0,0,0,0,0,0,0,0,0,0,0,0,0,0,0,0,0,0,0,0,0,0,0,0,0,0,0,0,0,0,0,0,0,0,0,0,0,0,0,0,0,0,0,0,0,0,0,0,0,0,0,0,0,0,-0.0276,-0.0276,0,-0.0279,-0.0279,-0.0279,-0.0288,-0.0288,-0.0288,-0.0288,-0.0231,-0.0229,-0.0228,0,0,0,0,0,0,0,0,0,0,0,0,0,-0.0278,-0.0278,-0.0276,-0.0276,-0.0276,-0.0279,-0.0279,-0.0279,-0.0288,-0.0288,-0.0288,-0.0288,-0.0231,-0.0229,-0.0227,0,0,0,0,0,0,0,0,0,0,0,0,0,-0.028,-0.0278,-0.0276,-0.028,-0.0281,-0.0279,-0.0279,-0.0279,-0.0288,-0.0288,-0.0288,-0.0288,-0.0232,-0.023,-0.0227,-0.0209,0,0,-0.022,-0.0219,0,0,0,0,0,0,0,0,-0.028,-0.028,-0.028,-0.028,-0.028,-0.0282,-0.0259,-0.0252,-0.0288,-0.0286,-0.0288,-0.0288,-0.0242,-0.0238,-0.0241,-0.0206,-0.0204,-0.0219,-0.0218,-0.0217,-0.0216,0,0,0,0,0,0,0,-0.028,-0.028,-0.0279,-0.028,-0.028,-0.0281,-0.0282,-0.0258,-0.0263,-0.0286,-0.0287,-0.0285,-0.0241,-0.0243,-0.0239,-0.0203,-0.0219,-0.0217,-0.0216,-0.0215,-0.0157,-0.0157,0,0,0,0,0,0,-0.0277,-0.028,-0.0278,-0.0278,-0.0279,-0.0281,-0.0282,-0.0282,-0.0264,-0.0262,-0.0285,-0.0286,-0.0247,-0.0242,-0.0237,-0.0204,-0.0217,-0.0215,-0.0213,-0.0157,-0.0157,-0.0157,0,0,0,0,0,0,-0.0277,-0.0277,-0.0278,-0.0278,-0.0278,-0.0281,-0.0282,-0.0282,-0.0286,-0.0264,-0.0261,-0.0289,-0.0247,-0.0241,-0.0219,-0.0202,-0.0214,-0.0211,-0.0157,-0.0157,-0.0157,-0.0143,0,0,0,0,0,0,-0.0277,-0.0277,-0.0282,-0.0278,-0.0278,-0.0282,-0.0281,-0.0282,-0.0285,-0.0285,-0.0265,-0.026,-0.0247,-0.0223,-0.0217,-0.0199,-0.0209,-0.0157,-0.0157,-0.0157,-0.0144,-0.0143,-0.0142,0,0,0,0,0,-0.0277,-0.0287,-0.0282,-0.0282,-0.0283,-0.0282,-0.0283,-0.0286,-0.0285,-0.0289,-0.0273,-0.0261,-0.0218,-0.0221,-0.0213,-0.0194,-0.0157,-0.0157,-0.0157,-0.0144,-0.0143,-0.0142,0,0,0,0,0,0,-0.0302,-0.0288,-0.0283,-0.0291,-0.0287,-0.0283,-0.0291,-0.0286,-0.0279,-0.0277,-0.0257,-0.0251,-0.0229,-0.0216,-0.022,-0.018,-0.0186,-0.0184,-0.0179,-0.0178,-0.0177,-0.0158,-0.0207,0,0,0,0,0,-0.0305,-0.0307,-0.0292,-0.0304,-0.0298,-0.0292,-0.0294,-0.0291,-0.0281,-0.028,-0.0265,-0.0245,-0.0223,-0.0205,-0.0192,-0.0161,-0.0134,-0.0147,-0.0146,-0.0145,-0.0127,-0.0069,-0.006,-0.0156,-0.0156,-0.0156,0,0,-0.0322,-0.0314,-0.0318,-0.0309,-0.0306,-0.0296,-0.0295,-0.0296,-0.0282,-0.0271,-0.0255,-0.0245,-0.0218,-0.0192,-0.018,-0.0176,-0.0109,-0.0145,-0.0144,-0.0126,-0.0068,-0.0058,-0.0049,-0.0156,-0.0156,-0.0156,0,0,-0.0352,-0.0344,-0.035,-0.0338,-0.0325,-0.0311,-0.0309,-0.0298,-0.0288,-0.0269,-0.0258,-0.0225,-0.0207,-0.017,-0.015,-0.013,-0.0113,-0.0145,-0.0109,-0.0054,-0.0045,-0.0036,-0.0007,0.0004,-0.0134,-0.0134,-0.0134,0,-0.0374,-0.0374,-0.0355,-0.0348,-0.0339,-0.0315,-0.0311,-0.029,-0.0275,-0.0257,-0.0263,-0.021,-0.0184,-0.0126,-0.0121,-0.0122,-0.0109,-0.0114,-0.005,-0.0041,-0.0032,-0.0004,0.0008,-0.0133,-0.0133,-0.0133,-0.0133,0,-0.0396,-0.0393,-0.0396,-0.0372,-0.0357,-0.0354,-0.0312,-0.0294,-0.0275,-0.0251,-0.0206,-0.0169,-0.0134,-0.0121,-0.011,-0.0042,-0.0061,-0.0062,-0.0048,-0.0021,0.0005,0.0018,-0.0132,-0.0132,-0.0133,-0.0133,0,0,-0.0449,-0.0419,-0.042,-0.0412,-0.0367,-0.0362,-0.0318,-0.0276,-0.0251,-0.0213,-0.0178,-0.0113,-0.0096,-0.0072,-0.0052,0.0011,0.0083,-0.0002,0.0001,0.0035,0.0179,0.0136,0.0145,0.0082,0.0085,0.0087,0.0168,0,-0.0474,-0.048,-0.0443,-0.0436,-0.0432,-0.0376,-0.0341,-0.0293,-0.025,-0.021,-0.0135,-0.0105,-0.0076,-0.0068,0.0006,0.005,0.0118,0.006,0.0142,0.0144,0.011,0.0159,0.0095,0.0177,0.018,0.0182,0.0183,0,-0.0499,-0.05,-0.0508,-0.0468,-0.0459,-0.0445,-0.0384,-0.0348,-0.0261,-0.0227,-0.0157,-0.0118,-0.0021,-0.0011,0.013,0.008,0.0139,0.0187,0.0191,0.0161,0.0125,0.0149,0.0206,0.0204,0.0203,0.0201,0.02,0,-0.0555,-0.0536,-0.055,-0.0538,-0.049,-0.0478,-0.0448,-0.0368,-0.0341,-0.0248,-0.0224,-0.0106,-0.0064,0.0044,0.0145,0.0133,0.0287,0.0282,0.0309,0.0305,0.0313,0.0304,0.0404,0.0404,0.0404,0.0403,0.0403,0,-0.0585,-0.0595,-0.0587,-0.0594,-0.0608,-0.0542,-0.0533,-0.0477,-0.0404,-0.038,-0.0253,-0.0207,-0.0048,0.0051,0.0148,0.026,0.0295,0.0335,0.0337,0.0311,0.0301,0.0321,0.031,0.0406,0.0406,0.0405,0.0405,0,-0.0636,-0.063,-0.0653,-0.0637,-0.0641,-0.0654,-0.0623,-0.0611,-0.0518,-0.0484,-0.0461,-0.0286,-0.0143,0.0009,0.0184,0.0248,0.0366,0.04,0.0351,0.0345,0.0346,0.0335,0.0446,0.0445,0.0445,0.0444,0.0444,0,-0.0657,-0.068,-0.0717,-0.0754,-0.0756,-0.0769,-0.078,-0.0698,-0.0683,-0.0539,-0.0532,-0.0363,-0.0247,-0.0018,0.015,0.0344,0.0368,0.0417,0.0412,0.0366,0.0357,0.0347,0.0337,0.0443,0.0443,0.0443,0.0443,0,-0.0706,-0.0733,-0.0763,-0.0845,-0.0888,-0.0911,-0.0917,-0.0906,-0.0802,-0.0739,-0.0592,-0.0426,-0.0253,-0.004,0.0114,0.0253,0.0379,0.0413,0.0415,0.0411,0.0365,0.0354,0.0344,0.0441,0.0442,0.0442,0.0442,0,-0.0759,-0.0804,-0.086,-0.0921,-0.0987,-0.1012,-0.1001,-0.0957,-0.0912,-0.075,-0.0714,-0.047,-0.0328,-0.0087,0.0052,0.0189,0.0225,0.0247,0.0259,0.0263,0.0186,0.0099,0.0115,0,0,0,0,0,-0.08,-0.0854,-0.0924,-0.0991,-0.1053,-0.1074,-0.107,-0.1036,-0.0956,-0.0882,-0.0786,-0.062,-0.0339,-0.0185,-0.0057,0.0035,0.0237,0.0187,0.0264,0.0432,0.0434,0.0372,0,0,0,0,0,0,-0.084,-0.0915,-0.0936,-0.1025,-0.1074,-0.1127,-0.1116,-0.106,-0.0993,-0.0893,-0.0735,-0.0633,-0.0353,-0.043,-0.0071,-0.002,0.0037,0.033,0.0331,0.0431,0.0433,0.0434,0.0371,0,0,0,0,0]}]]